Location: Strada George Coșbuc
(47.6577°N, 23.5639°E)
Time: 22:17:44
(UTC+03:00)

ISS - Pass Details

Date: 16 September 2017
Orbit: 401 x 407 km, 51.6° (Epoch: 25 September)

Event Time Altitude Azimuth Distance (km) Brightness Sun altitude
Exits shadow 05:29:26 25° 305° (NW) 866 -2.5 -16.3°
Maximum altitude 05:31:08 60° 17° (NNE) 474 -3.4 -16.0°
Drops below altitude 10° 05:34:24 10° 99° (E) 1,469 -0.1 -15.5°
Sets 05:36:30 0° 103° (ESE) 2,328 1.0 -15.2°
